Regional Weather Roundup
Issued by NWS

Home | Current Version | Previous Version | Graphics & Text | Print | Product List | Glossary On
Versions: 1 2 3 4 5 6 7 8 9 10 11 12 13 14 15 16 17 18 19 20 21 22 23 24 25 26 27 28 29 30 31 32 33 34 35 36 37 38 39 40 41 42 43 44 45 46 47 48 49 50
000
ASUS45 KTFX 281704
RWRMT
MONTANA HOURLY WEATHER ROUNDUP
NATIONAL WEATHER SERVICE GREAT FALLS MT
1104 AM MDT MON JUL 28 2014

NOTE: "FAIR" INDICATES FEW OR NO CLOUDS BELOW 12000 FEET WITH NO
SIGNIFICANT WEATHER AND/OR OBSTRUCTIONS TO VISIBILITY.

* THESE STATIONS ARE NOT UNDER NWS QUALITY CONTROL. THEY DO NOT
   REPORT WEATHER SUCH AS PRECIPITATION OR FOG.

MTZ001>007-043-281800-
WEST OF THE DIVIDE
CITY           SKY/WX    TMP DP  RH WIND       PRES   REMARKS
KALISPELL      CLOUDY    68  48  49 N14       30.21S
MISSOULA       CLOUDY    70  45  41 CALM      30.24S
BUTTE          CLOUDY    70  39  32 E3        30.33F
MULLAN PASS    PTCLDY    72  41  33 VRB3      30.36F
* ESSEX        N/A       61  44  54 SE4G9      N/A
* LINCOLN      N/A       61  44  54 E6         N/A
* LOOKOUT PASS N/A       73  50  44 S4         N/A
* POLSON       N/A       73  52  48 SE2        N/A
* RONAN APT    PTSUNNY   73  54  51 N/A        N/A
* SEELEY LAKE  N/A       65  43  45 SW2        N/A
* THOMP F APT  PTCLDY    80  34  19 S2G10      N/A
* YAAK HILL    N/A       71  47  43 N/A        N/A
$$

MTZ008-052>055-281800-
SOUTHWEST MONTANA
CITY           SKY/WX    TMP DP  RH WIND       PRES   REMARKS
BOZEMAN        PTCLDY    73  45  37 CALM      30.28F
DILLON         CLOUDY    66  48  52 CALM      30.31S
W YELLOWSTONE  PTSUNNY   68  39  35 CALM      30.42S
* THREE FORKS  PTSUNNY   75  50  42 N/A        N/A
* BOULDER HILL N/A       66  38  36 NE4        N/A
* RAYNOLDS PAS N/A       72  29  20 NW2        N/A
* WHITEHALL    N/A       70  47  44 SE2G7      N/A
* WISE RIVER   N/A       58  37  46 N4         N/A
$$

MTZ009>010-012-014-046-048-049-054-281800-
EAST SLOPES AND CENTRAL MONTANA
CITY           SKY/WX    TMP DP  RH WIND       PRES   REMARKS
CUT BANK       PTCLDY    73  45  37 VRB6      30.27F
GREAT FALLS    PTCLDY    79  45  30 N7        30.24F
HELENA         PTSUNNY   79  39  24 CALM      30.25F
* CONRAD       SUNNY     72  55  55 N/A        N/A
* DEARBORN     N/A       79  41  26 SW2        N/A
* EAST GLACIER N/A       73  44  35 SW1        N/A
* ROGERS PASS  N/A       73  39  29 SE1        N/A
* SAINT MARY   N/A       63  42  46 W4         N/A
* SWEET GRASS  N/A       76  44  32 SE15G20    N/A
$$

MTZ011-013-016-021-035-040-045-047-050-051-281800-
NORTH CENTRAL MONTANA
CITY           SKY/WX    TMP DP  RH WIND       PRES   REMARKS
HAVRE          SUNNY     82  48  31 E7        30.22F
LEWISTOWN      PTCLDY    81  45  28 E15       30.29S
* CHESTER      N/A       80  44  28 SE10G20    N/A
* DENTON       N/A       82  47  29 E4G13      N/A
* GEYSER       N/A       72  44  37 N/A        N/A
* JUDITH GAP   N/A       75  49  40 S8G16      N/A
* LOMA         N/A       79  44  29 SE13       N/A
$$

MTZ017>020-022>027-061-062-281800-
NORTHEAST MONTANA
CITY           SKY/WX    TMP DP  RH WIND       PRES   REMARKS
GLASGOW        SUNNY     79  52  39 CALM      30.26F
GLENDIVE       SUNNY     73  54  51 CALM      30.31S
JORDAN         SUNNY     82  43  25 E12       30.26F
SIDNEY         SUNNY     77  55  47 E5        30.31F
WOLF POINT     SUNNY     77  54  45 CALM      30.27F
* BEAVER HILL  N/A       74  55  52 E2G7       N/A
* CIRCLE       N/A       80  55  42 NE3        N/A   HI  80
* LINDSAY DVD  N/A       75  54  48 E4         N/A
* NAVAJO       N/A       71  57  61 SE7        N/A
$$

MTZ028>042-056>058-281800-
SOUTHCENTRAL AND SOUTHEAST MONTANA
CITY           SKY/WX    TMP DP  RH WIND       PRES   REMARKS
BAKER          SUNNY     77  52  42 VRB7      30.32S
BILLINGS       SUNNY     75  45  34 VRB5      30.28S
LIVINGSTON     PTCLDY    75  41  30 E6        30.30F
MILES CITY     SUNNY     79  54  42 VRB3      30.27F
* LAUREL APT   PTCLDY    73  45  37 NE5        N/A
* ROUNDUP APT  SUNNY     77  45  32 E5         N/A
* ALZADA       N/A       75  53  46 E5         N/A
* HYSHAM       N/A       79  51  38 E10G15     N/A
* LAME DEER    N/A       72  51  48 E7         N/A
* REED POINT   N/A       77  46  33 N2         N/A
* ROSCOE HILL  N/A       72  42  34 N6         N/A
$$

REGIONAL REPORTS...DAKOTAS
CITY           SKY/WX    TMP DP  RH WIND       PRES   REMARKS
WILLISTON      SUNNY     75  54  48 VRB3      30.31S
DICKINSON      SUNNY     72  54  53 E7        30.32F
CROSBY         SUNNY     72  55  55 SE3       30.32S
TIOGA          SUNNY     68  55  63 CALM      30.35S
WATFORD CITY   SUNNY     73  54  51 W6        30.29F
BISMARCK       PTCLDY    68  52  57 W6        30.33F
GRAND FORKS    PTCLDY    72  55  55 NW7G16    30.26F
FARGO          CLOUDY    70  57  64 NW9       30.27S
BUFFALO SD     SUNNY     73  55  53 E6        30.27S
RAPID CITY     SUNNY     73  57  57 SE10      30.33F
$$

REGIONAL REPORTS...WYOMING/IDAHO/WASHINGTON
CITY           SKY/WX    TMP DP  RH WIND       PRES   REMARKS
GILLETTE       SUNNY     77  50  39 S10G17    30.32F
SHERIDAN       SUNNY     79  50  36 VRB3      30.29F
YELLOWSTONE LA PTCLDY    70  34  27 E3        30.52F
SALMON         PTSUNNY   70  41  35 NW5       30.21F
MULLAN PASS    PTCLDY    72  41  33 VRB3      30.36S
SAND POINT     PTCLDY    73  50  44 NE10G18   30.15F
SPOKANE        PTCLDY    81  45  28 CALM      30.12R

$$




USA.gov is the U.S. government's official web portal to all federal, state and local government web resources and services.